Weather History for Saratoga Shively Field Airpor, WY

Change the Weather History Date:

Thursday, February 6, 2014

  Actual Average Record
Temperature  
Mean Temperature 4 °F -  
Max Temperature 21 °F 33 °F 21 °F (2014)
Min Temperature -14 °F 5 °F -14 °F (2014)
Degree Days  
Heating Degree Days 62    
Moisture  
Dew Point -1 °F    
Average Humidity 80    
Maximum Humidity 86    
Minimum Humidity 72    
Precipitation  
Precipitation 0.00 in - - ()
Sea Level Pressure  
Sea Level Pressure 29.83 in    
Wind  
Wind Speed 1 mph (ESE)    
Max Wind Speed 5 mph    
Max Gust Speed 16 mph    
Visibility 5 miles    
Events Snow    
Averages and records for this station are not official NWS values.
T = Trace of Precipitation, MM = Missing Value Source: NWS Daily Summary

Daily Weather History Graph

Daily Weather History Graph

Search for Another Location

Airport:

Trip Planner

Search our weather history database for the weather conditions in past years. The results will help you decide how hot, cold, wet, or windy it might be!

Date:

Astronomy

Feb. 06, 2014 Rise Set
Actual Time 7:13 AM MST 5:29 PM MST
Civil Twilight 6:44 AM MST 5:58 PM MST
Nautical Twilight 6:11 AM MST 6:31 PM MST
Astronomical Twilight 5:39 AM MST 7:04 PM MST
Moon 11:03 AM MST (2/6) 12:32 AM MST (2/6)
Length of Visible Light 11h 14m
Length of Day
10h 16m
Waxing Crescent, 50% of the Moon is Illuminated
Feb 6
Waxing Crescent
Feb 6
First Quarter
Feb 14
Full
Feb 22
Last Quarter
Mar 1
New

Hourly Weather History & Observations

Time (MST) Temp. Windchill Dew Point Humidity Pressure Visibility Wind Dir Wind Speed Gust Speed Precip Events Conditions
12:15 AM -5.8 °F - -9.4 °F 84% 29.95 in 2.5 mi Calm Calm - N/A Snow Light Snow
12:35 AM -5.8 °F -14.5 °F -9.4 °F 84% 29.94 in 2.5 mi NW 3.5 mph - N/A Snow Light Snow
12:55 AM -5.8 °F - -9.4 °F 84% 29.93 in 2.0 mi Calm Calm - N/A Snow Light Snow
1:15 AM -5.8 °F -14.5 °F -9.4 °F 84% 29.93 in 2.0 mi NNW 3.5 mph - N/A Snow Light Snow
1:35 AM -5.8 °F -16.7 °F -9.4 °F 84% 29.93 in 1.8 mi NNW 4.6 mph - N/A Snow Light Snow
1:55 AM -5.8 °F -16.7 °F -9.4 °F 84% 29.94 in 1.8 mi NW 4.6 mph - N/A Snow Light Snow
2:15 AM -7.6 °F -18.8 °F -11.2 °F 84% 29.94 in 1.5 mi NW 4.6 mph - N/A Snow Light Snow
2:36 AM -7.6 °F -18.8 °F -11.2 °F 84% 29.94 in 2.0 mi NW 4.6 mph - N/A Snow Light Snow
2:53 AM -7.6 °F -16.5 °F -11.2 °F 84% 29.93 in 1.0 mi NNW 3.5 mph - N/A Snow Snow
3:15 AM -7.6 °F - -11.2 °F 84% 29.92 in 1.5 mi Calm Calm - N/A Snow Light Snow
3:35 AM -7.6 °F - -11.2 °F 84% 29.91 in 1.5 mi Calm Calm - N/A Snow Light Snow
3:55 AM -5.8 °F - -11.2 °F 77% 29.91 in 1.8 mi Calm Calm - N/A Snow Light Snow
4:15 AM -5.8 °F - -11.2 °F 77% 29.91 in 1.2 mi Calm Calm - N/A Snow Snow
4:35 AM -5.8 °F - -11.2 °F 77% 29.91 in 1.5 mi Calm Calm - N/A Snow Light Snow
4:55 AM -5.8 °F - -9.4 °F 84% 29.91 in 1.2 mi Calm Calm - N/A Snow Light Snow
5:15 AM -5.8 °F - -9.4 °F 84% 29.90 in 1.5 mi Calm Calm - N/A Snow Light Snow
5:35 AM -5.8 °F - -9.4 °F 84% 29.89 in 2.0 mi Calm Calm - N/A Snow Light Snow
5:55 AM -5.8 °F - -9.4 °F 84% 29.89 in 2.5 mi Calm Calm - N/A Snow Light Snow
6:15 AM -7.6 °F - -13.0 °F 77% 29.88 in 3.0 mi Calm Calm - N/A Snow Light Snow
6:35 AM -11.2 °F - -14.8 °F 84% 29.87 in 7.0 mi Calm Calm - N/A Snow Light Snow
6:55 AM -14.8 °F - -18.4 °F 84% 29.87 in 10.0 mi Calm Calm - N/A   Scattered Clouds
7:15 AM -13.0 °F -25.1 °F -16.6 °F 84% 29.87 in 10.0 mi West 4.6 mph - N/A   Mostly Cloudy
7:35 AM -9.4 °F - -14.8 °F 77% 29.87 in 7.0 mi Calm Calm - N/A   Overcast
7:55 AM -7.6 °F - -13.0 °F 77% 29.87 in 1.8 mi Calm Calm - N/A Snow Light Snow
8:15 AM -9.4 °F - -13.0 °F 84% 29.86 in 1.2 mi Calm Calm - N/A Snow Light Snow
8:35 AM -7.6 °F - -13.0 °F 77% 29.87 in 1.2 mi Calm Calm - N/A Snow Light Snow
8:55 AM -7.6 °F - -13.0 °F 77% 29.87 in 1.2 mi Calm Calm - N/A Snow Light Snow
9:15 AM -7.6 °F - -13.0 °F 77% 29.86 in 1.2 mi Calm Calm - N/A Snow Light Snow
9:35 AM -5.8 °F - -11.2 °F 77% 29.87 in 1.8 mi Calm Calm - N/A Snow Light Snow
9:55 AM -5.8 °F - -9.4 °F 84% 29.86 in 1.2 mi Calm Calm - N/A Snow Light Snow
10:15 AM -5.8 °F - -9.4 °F 84% 29.87 in 0.8 mi Calm Calm - N/A Snow Light Snow
10:35 AM -4.0 °F - -9.4 °F 78% 29.86 in 0.5 mi Calm Calm - N/A Snow Light Snow
10:55 AM -4.0 °F - -7.6 °F 85% 29.86 in 0.5 mi Calm Calm - N/A Snow Snow
11:15 AM -2.2 °F - -7.6 °F 78% 29.86 in 0.5 mi Calm Calm - N/A Snow Snow
11:35 AM -0.4 °F - -7.6 °F 72% 29.86 in 0.5 mi Calm Calm - N/A Snow Snow
11:55 AM -0.4 °F - -5.8 °F 78% 29.85 in 1.2 mi Calm Calm - N/A Snow Light Snow
12:15 PM 1.4 °F - -5.8 °F 72% 29.83 in 1.0 mi Calm Calm - N/A Snow Light Snow
12:35 PM 1.4 °F - -4.0 °F 78% 29.83 in 1.5 mi Calm Calm - N/A Snow Light Snow
12:55 PM 3.2 °F - -2.2 °F 78% 29.81 in 5.0 mi Calm Calm - N/A   Haze
1:15 PM 5.0 °F - -0.4 °F 78% 29.81 in 10.0 mi Calm Calm - N/A   Overcast
1:35 PM 5.0 °F - -0.4 °F 78% 29.80 in 3.0 mi Calm Calm - N/A Snow Light Snow
1:55 PM 8.6 °F - 1.4 °F 73% 29.80 in 1.8 mi Calm Calm - N/A Snow Light Snow
2:15 PM 8.6 °F 2.0 °F 3.2 °F 79% 29.79 in 3.0 mi NE 3.5 mph - N/A   Haze
2:35 PM 10.4 °F 4.0 °F 5.0 °F 79% 29.78 in 7.0 mi East 3.5 mph - N/A   Overcast
2:55 PM 12.2 °F 4.3 °F 8.6 °F 85% 29.79 in 10.0 mi East 4.6 mph - N/A   Overcast
3:15 PM 14.0 °F 8.2 °F 10.4 °F 86% 29.79 in 5.0 mi East 3.5 mph 16.1 mph N/A   Haze
3:35 PM 15.8 °F 10.2 °F 10.4 °F 79% 29.78 in 5.0 mi SSE 3.5 mph - N/A   Haze
3:55 PM 15.8 °F - 10.4 °F 79% 29.78 in 10.0 mi Calm Calm - N/A   Overcast
4:15 PM 17.6 °F 12.3 °F 12.2 °F 79% 29.77 in 10.0 mi SSE 3.5 mph - N/A   Overcast
4:35 PM 17.6 °F 12.3 °F 12.2 °F 79% 29.77 in 10.0 mi NNE 3.5 mph - N/A   Overcast
4:55 PM 17.6 °F 10.7 °F 12.2 °F 79% 29.77 in 10.0 mi East 4.6 mph - N/A   Overcast
5:15 PM 17.6 °F - 12.2 °F 79% 29.77 in 10.0 mi Calm Calm - N/A   Overcast
5:35 PM 17.6 °F - 12.2 °F 79% 29.77 in 10.0 mi Calm Calm - N/A   Overcast
5:55 PM 17.6 °F - 12.2 °F 79% 29.77 in 10.0 mi Calm Calm - N/A   Overcast
6:15 PM 17.6 °F - 12.2 °F 79% 29.77 in 10.0 mi Calm Calm - N/A   Overcast
6:35 PM 15.8 °F - 12.2 °F 86% 29.77 in 10.0 mi Calm Calm - N/A   Overcast
6:55 PM 14.0 °F 8.2 °F 10.4 °F 86% 29.77 in 10.0 mi SSE 3.5 mph - N/A   Mostly Cloudy
7:15 PM 15.8 °F 8.6 °F 12.2 °F 86% 29.76 in 10.0 mi SE 4.6 mph - N/A   Mostly Cloudy
7:35 PM 17.6 °F - 12.2 °F 79% 29.75 in 10.0 mi Calm Calm - N/A   Overcast
7:55 PM 14.0 °F 6.5 °F 10.4 °F 86% 29.75 in 10.0 mi ESE 4.6 mph - N/A   Overcast
8:15 PM 14.0 °F - 10.4 °F 86% 29.75 in 10.0 mi Calm Calm - N/A   Overcast
8:35 PM 17.6 °F - 12.2 °F 79% 29.75 in 10.0 mi Calm Calm - N/A   Overcast
8:55 PM 17.6 °F - 10.4 °F 73% 29.75 in 10.0 mi Calm Calm - N/A   Overcast
9:15 PM 19.4 °F 12.8 °F 12.2 °F 74% 29.76 in 10.0 mi South 4.6 mph - N/A   Overcast
9:35 PM 19.4 °F - 12.2 °F 74% 29.76 in 10.0 mi Calm Calm - N/A   Overcast
9:56 PM 17.6 °F - 12.2 °F 79% 29.76 in 10.0 mi Calm Calm - N/A   Overcast
10:15 PM 19.4 °F - 12.2 °F 74% 29.74 in 10.0 mi Calm Calm - N/A   Overcast
10:35 PM 17.6 °F - 12.2 °F 79% 29.75 in 10.0 mi Calm Calm - N/A   Overcast
10:55 PM 19.4 °F 12.8 °F 14.0 °F 80% 29.75 in 10.0 mi West 4.6 mph - N/A   Overcast
11:15 PM 21.2 °F 14.9 °F 15.8 °F 80% 29.75 in 10.0 mi SW 4.6 mph - N/A   Overcast
11:35 PM 17.6 °F 10.7 °F 14.0 °F 86% 29.75 in 10.0 mi SSE 4.6 mph - N/A   Overcast
11:55 PM 17.6 °F 12.3 °F 14.0 °F 86% 29.74 in 10.0 mi SSW 3.5 mph - N/A   Overcast